OAL114 LIRN-LGAV

Flight info

Callsign OAL114
Flight time 1h 15m
Altitude 35000
Route POLIT GEMVI RUTOM UN604 ARA UB34 NEMES
Aircraft B738/M-VGDW/C

Departure

Time 2026-05-04 16:56
Airport Naples International Airport (LIRN)

Arrival

Time 2026-05-04 18:12
Airport Athens Eleftherios Venizelos International Airport (LGAV)
Time Latitude Longitude Altitude Speed Heading
2026-05-04 16:34 40.87815 14.28041 295 ft 0 kts 140°
2026-05-04 16:46 40.87823 14.28032 300 ft 2 kts 134°
2026-05-04 16:47 40.87835 14.27996 298 ft 2 kts 107°
2026-05-04 16:47 40.87845 14.27955 300 ft 2 kts 94°
2026-05-04 16:48 40.87845 14.27937 300 ft 0 kts 45°
2026-05-04 16:49 40.87850 14.27944 298 ft 2 kts 47°
2026-05-04 16:49 40.87904 14.28031 296 ft 10 kts 51°
2026-05-04 16:50 40.87956 14.28217 291 ft 11 kts 98°
2026-05-04 16:50 40.87940 14.28442 287 ft 15 kts 76°
2026-05-04 16:51 40.88095 14.28693 280 ft 20 kts 52°
2026-05-04 16:51 40.88181 14.28842 277 ft 20 kts 53°
2026-05-04 16:51 40.88348 14.29131 269 ft 19 kts 52°
2026-05-04 16:52 40.88505 14.29400 262 ft 18 kts 52°
2026-05-04 16:52 40.88578 14.29529 259 ft 17 kts 54°
2026-05-04 16:53 40.88719 14.29771 251 ft 16 kts 52°
2026-05-04 16:53 40.88922 14.30124 240 ft 18 kts 52°
2026-05-04 16:54 40.88996 14.30250 238 ft 12 kts 43°
2026-05-04 16:55 40.89075 14.30231 235 ft 7 kts 329°
2026-05-04 16:55 40.89086 14.30096 237 ft 13 kts 239°
2026-05-04 16:56 40.88518 14.28895 271 ft 141 kts 238°
2026-05-04 16:56 40.86367 14.25553 2143 ft 182 kts 189°
2026-05-04 16:57 40.85073 14.25836 2694 ft 193 kts 167°
2026-05-04 16:57 40.82426 14.26615 4100 ft 197 kts 169°
2026-05-04 16:58 40.78273 14.27482 5931 ft 209 kts 171°
2026-05-04 16:58 40.76817 14.27725 6474 ft 212 kts 172°
2026-05-04 16:59 40.73852 14.28187 7445 ft 216 kts 172°
2026-05-04 17:00 40.67556 14.29880 8548 ft 262 kts 161°
2026-05-04 17:00 40.61854 14.32125 9631 ft 301 kts 162°
2026-05-04 17:01 40.58489 14.33480 10553 ft 315 kts 154°
2026-05-04 17:01 40.54854 14.37235 10929 ft 350 kts 136°
2026-05-04 17:02 40.51162 14.41583 12077 ft 360 kts 136°
2026-05-04 17:02 40.47372 14.45993 13405 ft 367 kts 137°
2026-05-04 17:03 40.45441 14.48222 14071 ft 371 kts 137°
2026-05-04 17:03 40.43481 14.50477 14692 ft 375 kts 137°
2026-05-04 17:03 40.39539 14.54998 15954 ft 382 kts 137°
2026-05-04 17:04 40.35490 14.59630 17188 ft 390 kts 137°
2026-05-04 17:04 40.31350 14.64358 18395 ft 398 kts 137°
2026-05-04 17:05 40.27120 14.69182 19429 ft 406 kts 137°
2026-05-04 17:05 40.22812 14.74086 20432 ft 414 kts 137°
2026-05-04 17:06 40.18442 14.79053 21384 ft 423 kts 137°
2026-05-04 17:06 40.16211 14.81589 21885 ft 426 kts 136°
2026-05-04 17:07 40.12999 14.88004 22819 ft 426 kts 111°
2026-05-04 17:07 40.12208 14.90416 23135 ft 429 kts 110°
2026-05-04 17:07 40.10665 14.95214 23691 ft 435 kts 110°
2026-05-04 17:07 40.09482 14.98888 24062 ft 439 kts 110°
2026-05-04 17:08 40.08286 15.02571 24447 ft 442 kts 110°
2026-05-04 17:08 40.05837 15.10007 25145 ft 449 kts 110°
2026-05-04 17:08 40.04604 15.13715 25483 ft 453 kts 110°
2026-05-04 17:09 40.03342 15.17495 25823 ft 456 kts 110°
2026-05-04 17:09 40.02067 15.21309 26162 ft 460 kts 110°
2026-05-04 17:09 40.00780 15.25148 26488 ft 463 kts 110°
2026-05-04 17:10 39.98174 15.32913 27120 ft 470 kts 110°
2026-05-04 17:10 39.94191 15.44741 28040 ft 480 kts 110°
2026-05-04 17:11 39.92845 15.48728 28340 ft 483 kts 110°
2026-05-04 17:11 39.91487 15.52745 28631 ft 486 kts 110°
2026-05-04 17:11 39.88737 15.60859 29191 ft 492 kts 110°
2026-05-04 17:12 39.87366 15.64899 29466 ft 495 kts 110°
2026-05-04 17:12 39.84562 15.73137 29987 ft 501 kts 110°
2026-05-04 17:13 39.80289 15.85648 30767 ft 506 kts 110°
2026-05-04 17:14 39.75999 15.98142 31805 ft 503 kts 110°
2026-05-04 17:14 39.74589 16.02242 32048 ft 504 kts 110°
2026-05-04 17:14 39.71717 16.10574 32578 ft 505 kts 110°
2026-05-04 17:15 39.70281 16.14733 32905 ft 504 kts 110°
2026-05-04 17:15 39.67412 16.23015 33531 ft 503 kts 110°
2026-05-04 17:16 39.64533 16.31309 34051 ft 503 kts 110°
2026-05-04 17:16 39.60205 16.43725 34802 ft 502 kts 110°
2026-05-04 17:17 39.58763 16.47848 35069 ft 501 kts 110°
2026-05-04 17:18 39.52972 16.64363 35092 ft 502 kts 110°
2026-05-04 17:19 39.47197 16.80723 35118 ft 497 kts 110°
2026-05-04 17:20 39.41431 16.96985 35118 ft 498 kts 110°
2026-05-04 17:20 39.37089 17.09168 35102 ft 501 kts 110°
2026-05-04 17:21 39.31223 17.25542 35122 ft 503 kts 110°
2026-05-04 17:22 39.28275 17.33738 35120 ft 504 kts 110°
2026-05-04 17:23 39.22364 17.50100 35109 ft 504 kts 110°
2026-05-04 17:24 39.17903 17.62393 35121 ft 504 kts 110°
2026-05-04 17:25 39.11948 17.78726 35122 ft 502 kts 111°
2026-05-04 17:26 39.04713 17.94165 35123 ft 506 kts 120°
2026-05-04 17:27 38.95221 18.13197 35125 ft 505 kts 118°
2026-05-04 17:28 38.87687 18.28444 35130 ft 505 kts 119°
2026-05-04 17:29 38.76356 18.51207 35084 ft 503 kts 121°
2026-05-04 17:31 38.66930 18.70020 35132 ft 503 kts 121°
2026-05-04 17:32 38.57437 18.88862 35132 ft 503 kts 121°
2026-05-04 17:33 38.52103 19.00308 35134 ft 498 kts 109°
2026-05-04 17:33 38.50975 19.04467 35130 ft 492 kts 99°
2026-05-04 17:34 38.48374 19.21471 35132 ft 488 kts 97°
2026-05-04 17:35 38.45014 19.42695 35138 ft 486 kts 97°
2026-05-04 17:36 38.43656 19.51099 35137 ft 486 kts 97°
2026-05-04 17:36 38.42290 19.59533 35136 ft 485 kts 97°
2026-05-04 17:37 38.40921 19.67947 35135 ft 484 kts 97°
2026-05-04 17:37 38.39546 19.76353 35137 ft 484 kts 97°
2026-05-04 17:38 38.38166 19.84756 35137 ft 483 kts 97°
2026-05-04 17:38 38.36782 19.93145 35137 ft 484 kts 97°
2026-05-04 17:39 38.34699 20.05693 35139 ft 485 kts 97°
2026-05-04 17:39 38.33293 20.14117 35140 ft 486 kts 97°
2026-05-04 17:40 38.31880 20.22547 35135 ft 487 kts 98°
2026-05-04 17:40 38.30565 20.31004 35134 ft 486 kts 95°
2026-05-04 17:41 38.29526 20.39466 35137 ft 487 kts 94°
2026-05-04 17:41 38.28495 20.48000 35139 ft 488 kts 94°
2026-05-04 17:42 38.27414 20.56551 35137 ft 489 kts 94°
2026-05-04 17:42 38.26302 20.65113 35134 ft 490 kts 95°
2026-05-04 17:43 38.25189 20.73604 35135 ft 490 kts 95°
2026-05-04 17:43 38.24065 20.82151 35135 ft 489 kts 95°
2026-05-04 17:44 38.22936 20.90692 35135 ft 488 kts 95°
2026-05-04 17:44 38.21811 20.99164 35138 ft 487 kts 94°
2026-05-04 17:45 38.20674 21.07674 35143 ft 486 kts 94°
2026-05-04 17:45 38.19534 21.16154 35141 ft 486 kts 94°
2026-05-04 17:46 38.18391 21.24614 35127 ft 485 kts 94°
2026-05-04 17:46 38.17253 21.33002 35127 ft 484 kts 94°
2026-05-04 17:47 38.16045 21.41447 34974 ft 489 kts 98°
2026-05-04 17:47 38.14997 21.45618 34329 ft 501 kts 109°
2026-05-04 17:47 38.13503 21.49623 33683 ft 503 kts 112°
2026-05-04 17:48 38.11924 21.53588 33142 ft 500 kts 112°
2026-05-04 17:48 38.10875 21.56185 32832 ft 498 kts 112°
2026-05-04 17:48 38.08792 21.61354 32190 ft 493 kts 112°
2026-05-04 17:48 38.07248 21.65238 31727 ft 490 kts 112°
2026-05-04 17:49 38.06237 21.67803 31414 ft 488 kts 112°
2026-05-04 17:49 38.04732 21.71647 30931 ft 486 kts 111°
2026-05-04 17:49 38.03215 21.75537 30449 ft 484 kts 111°
2026-05-04 17:49 38.01729 21.79353 29924 ft 482 kts 111°
2026-05-04 17:50 38.00265 21.83108 29413 ft 479 kts 111°
2026-05-04 17:50 37.98792 21.86880 28925 ft 476 kts 112°
2026-05-04 17:50 37.97324 21.90628 28420 ft 473 kts 111°
2026-05-04 17:50 37.95867 21.94347 27924 ft 470 kts 112°
2026-05-04 17:51 37.94415 21.98044 27421 ft 467 kts 112°
2026-05-04 17:51 37.92970 22.01719 26944 ft 463 kts 112°
2026-05-04 17:51 37.91542 22.05346 26424 ft 457 kts 112°
2026-05-04 17:51 37.90133 22.08916 25941 ft 448 kts 112°
2026-05-04 17:52 37.88755 22.12406 25473 ft 440 kts 112°
2026-05-04 17:52 37.87396 22.15847 24994 ft 434 kts 112°
2026-05-04 17:52 37.86072 22.19198 24521 ft 427 kts 112°
2026-05-04 17:52 37.84751 22.22538 24085 ft 421 kts 112°
2026-05-04 17:53 37.83450 22.25823 23619 ft 416 kts 112°
2026-05-04 17:53 37.82161 22.29074 23089 ft 409 kts 112°
2026-05-04 17:53 37.81034 22.32339 22360 ft 403 kts 101°
2026-05-04 17:53 37.80447 22.35790 21527 ft 399 kts 90°
2026-05-04 17:54 37.80160 22.39270 20927 ft 396 kts 90°
2026-05-04 17:54 37.79882 22.42714 20335 ft 392 kts 90°
2026-05-04 17:54 37.79601 22.46125 19795 ft 387 kts 90°
2026-05-04 17:54 37.79316 22.49503 19249 ft 385 kts 90°
2026-05-04 17:55 37.79029 22.52859 18753 ft 382 kts 90°
2026-05-04 17:55 37.78743 22.56144 18248 ft 379 kts 90°
2026-05-04 17:55 37.78454 22.59432 17745 ft 373 kts 91°
2026-05-04 17:55 37.78168 22.62669 17270 ft 368 kts 91°
2026-05-04 17:56 37.77884 22.65864 16796 ft 363 kts 92°
2026-05-04 17:56 37.77603 22.69021 16320 ft 357 kts 92°
2026-05-04 17:56 37.77325 22.72122 15831 ft 353 kts 92°
2026-05-04 17:56 37.77049 22.75198 15366 ft 351 kts 93°
2026-05-04 17:57 37.76813 22.78253 15050 ft 346 kts 90°
2026-05-04 17:57 37.76706 22.81223 14755 ft 338 kts 89°
2026-05-04 17:57 37.76646 22.84176 14322 ft 335 kts 89°
2026-05-04 17:57 37.76596 22.87109 13869 ft 333 kts 89°
2026-05-04 17:58 37.76541 22.90018 13389 ft 329 kts 89°
2026-05-04 17:58 37.76479 22.92897 12898 ft 327 kts 89°
2026-05-04 17:58 37.76412 22.95763 12429 ft 325 kts 89°
2026-05-04 17:58 37.76341 22.98608 11957 ft 322 kts 89°
2026-05-04 17:59 37.76267 23.01429 11500 ft 320 kts 89°
2026-05-04 17:59 37.76192 23.04235 11036 ft 318 kts 89°
2026-05-04 17:59 37.76039 23.09771 10381 ft 307 kts 88°
2026-05-04 18:00 37.75962 23.12427 10230 ft 296 kts 88°
2026-05-04 18:00 37.75888 23.14941 10083 ft 285 kts 88°
2026-05-04 18:00 37.75817 23.17401 9923 ft 276 kts 88°
2026-05-04 18:00 37.75748 23.19827 9623 ft 275 kts 88°
2026-05-04 18:01 37.75679 23.22241 9346 ft 273 kts 88°
2026-05-04 18:01 37.75610 23.24632 9070 ft 271 kts 88°
2026-05-04 18:01 37.75541 23.27010 8794 ft 270 kts 87°
2026-05-04 18:02 37.75403 23.31707 8241 ft 268 kts 87°
2026-05-04 18:02 37.75332 23.34057 7970 ft 267 kts 87°
2026-05-04 18:02 37.75262 23.36398 7697 ft 266 kts 87°
2026-05-04 18:02 37.75191 23.38734 7418 ft 266 kts 87°
2026-05-04 18:03 37.75119 23.41062 7145 ft 265 kts 87°
2026-05-04 18:03 37.75048 23.43388 6883 ft 265 kts 87°
2026-05-04 18:03 37.74976 23.45697 6601 ft 262 kts 87°
2026-05-04 18:03 37.74904 23.47984 6318 ft 260 kts 86°
2026-05-04 18:04 37.74833 23.50259 6024 ft 258 kts 87°
2026-05-04 18:04 37.74762 23.52522 5775 ft 258 kts 87°
2026-05-04 18:04 37.74966 23.57130 5029 ft 264 kts 75°
2026-05-04 18:05 37.75341 23.59386 4695 ft 260 kts 73°
2026-05-04 18:05 37.75715 23.61593 4413 ft 254 kts 74°
2026-05-04 18:05 37.76061 23.63716 4291 ft 240 kts 74°
2026-05-04 18:05 37.76375 23.65704 4171 ft 227 kts 75°
2026-05-04 18:06 37.76972 23.69580 4015 ft 225 kts 75°
2026-05-04 18:06 37.77264 23.71524 3877 ft 223 kts 75°
2026-05-04 18:06 37.77546 23.73419 3640 ft 217 kts 75°
2026-05-04 18:07 37.77819 23.75268 3409 ft 211 kts 76°
2026-05-04 18:07 37.78086 23.77074 3168 ft 206 kts 76°
2026-05-04 18:07 37.78474 23.78768 3009 ft 196 kts 51°
2026-05-04 18:07 37.79465 23.79860 3029 ft 190 kts 33°
2026-05-04 18:08 37.80535 23.80839 3020 ft 193 kts 33°
2026-05-04 18:08 37.81632 23.81843 2920 ft 197 kts 34°
2026-05-04 18:08 37.82740 23.82890 2683 ft 199 kts 34°
2026-05-04 18:08 37.83839 23.83940 2415 ft 197 kts 36°
2026-05-04 18:09 37.85948 23.85959 1907 ft 178 kts 36°
2026-05-04 18:09 37.87755 23.87685 1463 ft 153 kts 36°
2026-05-04 18:10 37.88608 23.88500 1250 ft 154 kts 36°
2026-05-04 18:10 37.89454 23.89309 1035 ft 155 kts 37°
2026-05-04 18:10 37.90316 23.90132 822 ft 156 kts 38°
2026-05-04 18:10 37.91180 23.90959 616 ft 156 kts 38°
2026-05-04 18:11 37.92043 23.91782 401 ft 155 kts 38°
2026-05-04 18:11 37.92885 23.92592 295 ft 140 kts 37°
2026-05-04 18:11 37.93547 23.93219 292 ft 97 kts 36°
2026-05-04 18:11 37.93967 23.93615 295 ft 54 kts 37°
2026-05-04 18:12 37.94148 23.93796 301 ft 20 kts 44°
2026-05-04 18:12 37.94230 23.93937 300 ft 20 kts 62°
2026-05-04 18:12 37.94285 23.94094 302 ft 19 kts 67°
2026-05-04 18:12 37.94341 23.94242 300 ft 18 kts 53°
2026-05-04 18:13 37.94438 23.94344 303 ft 18 kts 37°
2026-05-04 18:13 37.94535 23.94436 302 ft 17 kts 36°
2026-05-04 18:13 37.94680 23.94628 301 ft 15 kts 112°
2026-05-04 18:14 37.94620 23.94732 300 ft 14 kts 127°
2026-05-04 18:14 37.94561 23.94832 300 ft 15 kts 127°
2026-05-04 18:14 37.94498 23.94940 300 ft 16 kts 127°
2026-05-04 18:15 37.94363 23.95167 302 ft 16 kts 127°
2026-05-04 18:15 37.94238 23.95379 300 ft 14 kts 127°
2026-05-04 18:15 37.94179 23.95478 301 ft 14 kts 127°
2026-05-04 18:16 37.94114 23.95555 300 ft 13 kts 171°
2026-05-04 18:16 37.94040 23.95508 301 ft 12 kts 217°
2026-05-04 18:16 37.93974 23.95445 299 ft 12 kts 217°
2026-05-04 18:17 37.93879 23.95295 300 ft 11 kts 250°
2026-05-04 18:17 37.93854 23.95214 302 ft 7 kts 242°
2026-05-04 18:17 37.93804 23.95117 302 ft 7 kts 294°
2026-05-04 18:18 37.93832 23.95067 300 ft 6 kts 307°
2026-05-04 18:18 37.93837 23.95059 300 ft 0 kts 307°